Location: Unspecified
(38.9820°N, 94.4650°W)
Time: 08:12:49
(UTC-05:00)

Okean 3 - Visible Passes

Search period start: 22 September 2017 00:00
Search period end: 02 October 2017 00:00
Orbit: 578 x 601 km, 82.5° (Epoch: 21 September)

Date Brightness Start Highest point End Pass type
(mag) Time Alt. Az. Time Alt. Az. Time Alt. Az.
22 Sep 4.8 04:53:28 32° N 04:53:28 32° N 04:55:53 10° N visible
23 Sep 5.2 05:02:10 22° NNW 05:02:10 22° NNW 05:03:57 10° N visible
24 Sep 6.8 03:34:15 10° NE 03:34:15 10° NE 03:34:17 10° NE visible
24 Sep 5.6 05:10:50 16° NNW 05:10:50 16° NNW 05:11:52 10° NNW visible
25 Sep 6.7 03:42:52 10° NNE 03:42:52 10° NNE 03:42:57 10° NNE visible
25 Sep 6.0 05:19:26 11° NNW 05:19:26 11° NNW 05:19:34 10° NNW visible
